Location: Eymir
(36.7333°N, 29.7833°E)
Time: 15:11:29
(UTC+00:00)

MOS 1 Rocket - Visible Passes

Search period start: 19 April 2026 00:00
Search period end: 29 April 2026 00:00
Orbit: 610 x 812 km, 97.4° (Epoch: 19 April)

Date Brightness Start Highest point End Pass type
(mag) Time Alt. Az. Time Alt. Az. Time Alt. Az.
19 Apr 6.3 02:39:20 10° NE 02:42:24 16° E 02:45:21 10° SE visible
21 Apr 6.4 02:32:44 10° ENE 02:35:07 13° E 02:37:26 10° ESE visible
23 Apr 6.7 02:26:29 10° ENE 02:27:49 11° E 02:29:08 10° ESE visible
